Vorticity
2 -9 -15 -6 5 14 18 11 5 6 17 24 27 26 23 20 18 16 16 16 15 15 14 14 14 13 13 12 11 10 9 8 8 8 8 8 8 8 8 9 10 11 12 12 12 12 12 11 10 10 10 12 13 13 12 13 13 13 13 13 12 12 12 13 13 13 13 14 16 16 15 8 -1 -7 -7 -2 0 2 4 7 9 8 6 5 5 6
10 0 -11 -11 -5 4 13 14 8 4 8 14 18 21 21 19 18 17 16 16 16 16 16 15 14 14 14 13 13 12 10 10 9 8 8 8 8 8 7 8 9 10 11 11 12 12 12 12 12 12 12 13 15 17 20 20 18 16 14 13 13 13 13 13 13 14 17 19 20 20 17 9 -1 -8 -8 -7 -5 -1 3 7 11 12 10 7 5 4
13 6 -5 -9 -8 -4 2 10 9 5 1 5 10 14 17 17 17 16 17 17 17 17 16 16 16 16 16 15 15 13 12 12 11 10 9 9 8 8 7 7 7 8 10 10 11 11 12 12 12 12 11 11 16 24 33 30 25 21 18 15 14 13 12 13 14 16 20 20 20 19 15 7 -2 -9 -10 -10 -7 -3 3 7 12 15 15 10 7 4
15 9 -0 -7 -8 -4 -0 4 6 5 1 2 5 9 13 14 15 15 17 18 18 18 18 18 17 17 17 18 17 16 14 14 13 11 10 10 9 9 8 8 7 8 9 10 11 12 12 12 12 11 10 10 15 22 29 25 23 23 22 19 17 15 14 13 14 17 21 20 17 12 5 -2 -7 -11 -11 -8 -4 2 6 8 14 18 19 14 10 6
18 14 5 -5 -10 -8 1 6 7 7 7 6 7 8 11 12 13 15 17 19 21 22 23 22 20 18 17 18 18 18 17 16 15 14 14 13 13 13 13 13 12 11 11 11 12 12 12 12 11 10 9 9 12 13 12 9 12 17 19 18 17 17 16 14 14 14 16 13 10 6 -1 -7 -10 -10 -8 -4 2 6 8 9 14 18 20 15 11 7
20 17 11 -0 -10 -14 -9 2 7 9 10 11 11 11 10 11 13 14 17 21 24 26 27 23 21 20 19 18 18 18 18 17 17 17 18 20 20 21 21 21 20 19 18 17 16 15 14 13 11 9 9 8 6 2 -3 -2 2 7 9 11 14 16 14 14 14 13 13 11 8 3 -3 -7 -7 -6 -3 2 6 8 8 10 14 17 17 12 10 7
22 21 16 6 -6 -14 -16 -7 1 6 8 10 11 12 12 13 14 15 17 21 25 27 24 20 18 18 18 18 18 18 19 20 21 22 24 27 28 29 28 27 27 26 26 25 24 22 19 17 15 13 13 9 5 2 -0 -1 -1 -1 0 4 7 9 9 12 13 13 13 13 10 5 -0 -2 -2 0 3 7 9 10 9 12 15 16 13 11 10 11
24 23 19 12 2 -8 -14 -9 -2 3 5 5 6 8 14 18 19 18 15 19 22 22 19 17 15 15 18 18 20 23 27 28 28 28 29 32 33 33 31 27 26 26 28 30 29 28 26 24 21 18 17 11 7 4 3 1 -0 -1 -1 2 4 6 7 9 11 12 14 15 13 10 6 6 7 8 10 11 11 11 12 15 15 14 11 12 14 17
24 25 22 15 7 0 -6 -4 -0 4 6 5 5 8 18 22 22 19 13 12 15 19 18 14 12 13 17 19 23 29 35 35 31 28 25 23 21 20 21 18 18 21 24 27 28 29 30 28 23 18 14 11 8 6 5 4 3 3 4 6 8 9 8 7 7 10 14 15 15 14 13 14 15 15 15 14 13 13 15 15 14 12 12 15 19 20
22 24 24 17 10 3 -1 -0 4 8 10 10 11 14 22 24 21 15 10 7 8 13 17 15 13 12 11 18 24 29 31 28 24 20 17 11 4 -0 -0 3 8 13 18 19 21 24 25 24 21 18 15 13 12 12 12 12 12 13 14 16 15 12 8 6 8 11 14 15 15 16 16 16 16 16 14 13 13 14 15 14 13 13 14 18 18 17
20 22 24 21 14 6 -2 -1 5 12 15 14 14 15 19 24 22 16 9 4 1 1 6 11 12 11 9 16 20 21 18 13 11 10 10 6 -0 -7 -11 -6 1 6 10 14 19 23 22 16 14 13 15 17 21 23 22 21 22 24 27 25 20 15 10 9 11 14 14 13 13 13 13 13 12 12 11 12 13 15 15 14 14 14 16 15 12 9
19 22 24 23 19 12 2 -2 3 11 16 15 15 16 16 20 23 22 15 5 -3 -5 -2 3 8 12 14 17 16 12 7 3 0 -3 -5 -4 -5 -5 -5 -1 2 4 3 7 13 16 11 9 9 9 11 13 18 22 19 20 22 25 26 22 18 14 10 11 13 14 13 12 11 10 10 10 11 12 13 14 16 16 16 14 14 13 11 8 5 3
18 20 23 23 21 16 9 1 2 8 14 11 11 14 15 13 15 19 21 12 3 -3 -3 0 4 9 15 19 16 9 -1 -2 -4 -8 -14 -14 -11 -6 -2 4 6 5 -1 -0 2 4 4 6 8 8 7 9 12 14 13 15 19 21 19 18 17 16 14 16 17 18 18 16 15 14 14 14 15 16 17 17 16 15 13 11 9 6 4 2 2 3
16 18 21 23 22 19 15 5 1 2 8 3 2 3 7 7 11 16 21 21 15 7 -0 -1 1 5 12 17 17 13 4 1 -0 -3 -9 -9 -9 -7 -4 4 8 8 3 -0 -3 -5 -4 0 4 7 7 8 9 10 9 12 16 18 20 22 23 25 25 28 29 30 28 26 24 22 20 19 18 16 15 13 11 8 6 4 3 2 2 3 5 7
15 16 18 20 21 22 23 13 3 -3 -2 -0 -1 -1 1 8 13 15 16 21 21 16 9 4 2 2 6 12 16 16 13 14 14 11 6 8 6 2 -1 3 7 8 7 4 -1 -6 -9 -9 -6 -3 -1 2 4 5 6 7 9 12 15 20 23 25 27 25 25 25 22 20 18 15 10 8 6 4 2 2 1 1 1 2 3 5 7 9 10 11
18 19 18 19 19 21 25 20 11 2 -5 -1 2 4 3 11 17 19 17 16 15 14 14 9 6 5 6 9 9 9 11 16 21 25 27 29 26 21 12 9 7 8 9 7 4 -0 -6 -11 -14 -14 -14 -10 -6 -3 -0 2 3 5 7 10 14 17 18 12 4 -4 -8 -12 -15 -18 -19 -18 -16 -13 -8 -5 -1 2 5 8 10 13 14 14 14 13
17 20 19 20 21 23 24 21 17 11 2 2 6 11 12 14 15 16 19 16 15 13 12 10 8 5 5 4 1 -1 2 4 9 15 22 26 27 28 28 22 16 13 11 11 10 8 5 -2 -6 -9 -9 -6 -3 -1 0 1 2 3 1 -1 -0 2 4 3 -5 -15 -24 -24 -23 -21 -17 -12 -6 -0 6 11 14 15 16 17 17 17 17 16 14 13
13 16 17 20 22 23 23 20 17 15 10 9 12 17 25 24 18 13 17 20 18 14 8 9 9 7 2 -2 -4 -5 -4 -5 -6 -5 -3 -2 1 10 24 26 24 20 15 11 13 17 18 13 9 6 6 8 9 10 10 9 9 9 7 2 -1 -1 1 4 6 6 3 7 11 15 19 22 25 27 29 29 28 26 23 20 17 16 14 13 12 11
14 16 18 18 18 17 15 15 13 12 13 13 17 23 28 26 24 22 21 20 16 9 2 2 4 6 7 3 -1 -3 -2 -6 -10 -12 -12 -9 -7 -5 -1 6 12 17 21 21 23 24 27 22 18 16 15 13 13 13 13 14 16 19 21 17 15 14 17 20 24 28 32 35 38 40 40 39 37 35 33 30 27 23 18 15 13 12 11 10 10 10
18 20 23 19 14 9 8 10 9 8 9 13 20 27 29 23 21 20 19 23 19 12 5 4 3 4 5 5 3 1 3 -2 -7 -10 -7 -1 3 2 -4 -5 -2 4 9 13 16 18 21 19 18 17 16 15 14 14 14 15 17 19 22 20 20 22 26 29 31 32 33 32 32 30 29 26 24 22 20 18 15 13 11 10 9 9 9 10 10 11
15 16 22 24 17 8 3 4 6 8 10 14 22 28 27 18 18 19 17 19 14 8 7 9 8 6 4 5 5 6 8 5 -0 -5 -4 4 12 16 14 7 5 5 4 5 6 8 12 13 14 14 15 15 16 16 16 16 15 14 13 13 15 18 22 24 25 23 20 17 15 13 11 10 9 8 8 8 7 7 8 8 9 9 10 10 11 11
7 6 15 28 25 15 8 6 8 11 14 16 22 25 20 14 14 18 19 22 16 8 6 8 8 6 6 7 7 8 11 10 7 5 3 4 10 16 21 15 14 14 11 9 7 5 6 8 10 12 13 13 14 15 15 14 13 11 10 11 13 15 16 16 14 12 10 8 7 7 6 6 6 6 7 7 8 8 8 9 9 9 10 10 9 9
1 -2 8 36 40 32 21 16 14 15 18 22 25 24 17 7 3 7 21 25 23 16 7 4 5 9 13 14 12 12 15 14 13 12 13 9 8 9 11 9 10 11 13 12 10 8 9 11 12 13 14 14 14 14 15 14 13 13 12 13 14 14 13 11 9 7 7 7 7 7 7 8 8 8 8 8 8 8 8 8 8 8 8 8 8 7
-2 -6 2 38 54 52 35 23 18 17 22 27 28 25 19 9 -1 -3 10 21 24 19 9 5 10 16 20 18 15 14 15 14 13 13 16 15 14 12 8 6 7 10 13 13 11 11 14 17 16 14 14 15 15 15 15 16 16 16 16 16 16 14 12 10 8 7 7 7 7 8 8 8 8 7 7 7 7 7 7 7 7 7 7 7 7 6
0 -7 -7 25 48 55 40 27 21 21 25 27 26 23 22 16 3 -7 -4 8 17 20 17 16 18 20 18 15 12 11 12 12 12 12 15 18 19 19 17 14 14 15 15 13 13 15 20 20 16 13 13 15 15 15 15 16 17 17 17 17 15 13 11 9 8 8 7 7 7 7 7 7 6 6 6 6 6 6 7 7 7 7 7 7 7 7
7 -2 -13 4 27 41 33 26 23 23 23 20 18 17 19 17 10 3 1 6 11 16 20 20 15 11 10 9 7 6 9 10 13 15 17 19 19 18 18 19 19 19 18 17 18 21 24 21 15 12 11 14 14 13 13 14 14 14 14 14 13 11 10 9 8 7 7 7 6 6 6 6 6 6 6 6 6 7 7 7 7 7 7 7 7 7
19 9 -6 -10 9 28 28 25 22 19 16 13 10 9 10 11 12 13 17 21 21 18 16 7 -0 -4 -1 2 4 6 8 10 13 16 17 18 17 15 13 14 15 17 18 19 21 22 22 18 13 10 11 13 12 11 10 10 10 10 10 10 9 8 8 7 7 6 6 6 6 6 6 6 6 6 6 7 7 7 7 7 7 8 8 8 8 8
31 24 13 -3 -5 2 13 19 20 17 13 10 8 6 6 9 11 15 25 33 34 30 21 4 -7 -11 -7 0 6 10 12 13 13 11 9 11 14 15 11 9 10 13 15 17 18 19 19 16 12 10 11 11 9 7 6 6 6 6 7 6 6 6 6 5 5 5 5 5 6 6 6 7 7 7 7 6 6 7 7 7 8 8 8 8 7 7
35 34 33 18 3 -8 -8 4 13 18 18 14 10 8 9 14 13 14 26 34 36 33 27 13 4 -1 -1 5 11 16 19 17 13 9 5 8 12 15 13 10 10 12 14 13 14 15 17 14 12 10 10 9 7 5 4 5 5 5 5 5 5 5 5 5 5 5 5 6 6 7 7 7 7 7 7 6 6 7 7 7 7 7 7 7 7 6
27 34 43 34 19 4 -8 -6 -0 9 19 20 15 11 15 22 19 16 23 29 30 29 27 20 15 13 15 18 21 23 22 17 12 8 4 8 12 14 12 11 12 14 14 11 10 10 13 11 10 9 9 8 7 6 5 5 5 5 5 5 5 5 5 5 5 5 5 6 7 7 8 8 8 7 7 6 6 7 7 7 7 7 6 6 6 7
18 25 39 41 30 14 3 -1 -3 -1 6 18 17 11 8 19 21 20 23 25 25 25 27 24 22 23 28 30 28 22 14 11 8 5 1 9 14 14 11 11 13 16 15 12 9 7 6 5 6 6 8 8 7 6 6 6 5 5 4 5 5 6 7 6 6 6 6 6 7 8 9 9 8 8 7 7 6 7 7 6 6 6 6 6 7 7
12 15 27 41 36 22 8 6 4 0 -5 4 8 6 -2 6 11 18 28 27 25 25 29 29 25 21 23 23 19 13 5 4 2 -0 -0 10 15 16 11 11 13 14 13 14 12 10 5 2 1 3 6 6 6 5 5 4 4 4 4 5 6 7 7 7 6 6 5 6 7 8 9 9 9 8 7 7 6 6 6 6 6 6 6 6 6 6
10 11 17 34 38 30 14 10 8 5 -3 -8 -6 -3 -3 -1 2 8 22 25 24 23 28 32 25 13 3 0 1 2 1 0 -2 -3 1 12 16 14 8 10 12 11 8 9 11 11 11 6 3 2 5 5 5 4 3 3 3 3 4 5 6 7 7 7 6 5 5 5 6 8 9 10 9 8 7 7 6 6 5 5 5 5 5 6 6 6
12 11 13 25 33 35 27 18 13 9 3 -6 -11 -10 -4 -1 0 2 6 11 13 13 17 27 28 20 4 -4 -4 0 3 3 0 -0 6 15 16 12 7 9 10 8 5 5 6 7 8 7 5 4 4 4 4 3 2 2 2 3 5 6 7 7 7 7 5 4 3 3 5 6 8 9 9 8 7 6 6 5 5 5 5 5 5 5 5 5
15 13 12 16 23 29 33 28 22 16 11 3 -3 -5 -2 2 3 2 -0 -0 1 1 1 10 21 29 30 20 13 9 8 5 2 3 9 16 15 11 7 8 8 7 4 4 4 4 4 4 3 2 2 2 2 2 2 2 2 3 4 6 7 7 7 6 5 3 2 1 2 4 6 7 7 7 6 5 5 4 4 4 4 3 3 3 3 2
18 16 14 14 15 18 24 27 26 23 18 11 5 2 3 6 7 6 3 1 -1 -3 -6 -5 1 12 26 33 35 31 23 13 7 7 10 13 12 9 5 6 5 4 1 1 2 2 2 2 1 0 -0 -1 -1 -2 0 -0 1 2 3 5 6 6 6 6 4 3 1 0 0 1 3 4 5 6 5 5 4 4 3 3 2 2 1 1 0 -0
18 18 16 14 14 14 15 18 20 20 19 15 11 7 6 8 9 10 8 6 5 2 -1 -4 -5 -4 0 9 19 29 38 35 29 22 14 11 9 7 4 3 3 2 0 -0 0 1 2 2 1 0 -1 -2 -3 -4 -4 -4 -2 1 3 4 5 5 5 4 3 2 -0 -1 -2 -2 -0 1 3 4 5 5 4 4 3 2 1 -0 -1 -1 -1 -1
16 17 18 16 15 14 15 16 17 17 17 16 13 11 9 9 10 11 11 10 10 9 7 5 3 0 -3 -4 -3 2 11 23 32 36 31 21 16 16 16 13 11 10 9 8 7 7 7 6 6 5 4 3 3 2 0 -1 -1 1 4 5 7 8 8 7 5 3 -0 -2 -4 -4 -4 -1 2 4 6 6 6 6 5 3 2 -0 -1 -1 -1 -0
13 15 18 18 17 16 17 19 20 21 20 18 16 13 12 10 9 9 10 10 10 9 9 8 8 7 6 3 1 -2 -4 -3 5 15 23 17 12 11 13 14 14 13 13 12 11 9 8 7 8 10 13 16 17 16 15 12 10 9 10 10 11 12 13 14 14 12 9 4 1 -1 -2 1 3 6 8 9 10 10 10 8 6 3 1 0 0 1
9 12 14 16 16 15 15 17 19 21 21 21 19 17 15 13 12 11 10 9 8 8 7 7 7 7 7 8 8 8 7 3 0 -1 -0 -3 -6 -7 -5 -3 0 3 5 5 4 4 3 0 -1 -0 3 9 15 18 19 16 14 13 14 14 14 13 14 16 18 19 19 16 13 9 7 6 6 7 8 10 11 12 12 11 10 7 4 3 3 5
7 9 11 14 14 13 11 11 13 15 18 21 22 22 21 19 17 15 13 12 10 8 7 6 6 6 6 6 7 8 10 11 11 10 7 3 -1 -2 -2 -0 2 3 5 5 4 4 3 2 1 -1 -3 -3 -1 1 3 2 2 2 3 4 5 7 8 7 9 11 14 14 13 11 9 7 6 5 4 5 5 6 8 8 8 7 5 4 4 5
5 6 7 11 13 13 11 10 10 11 13 15 18 20 21 21 20 18 17 14 12 10 8 7 6 6 5 4 4 5 7 10 13 15 17 16 14 12 12 11 11 11 11 11 11 10 10 10 10 9 7 5 2 -0 -2 -3 -4 -4 -4 -3 -2 -2 -1 -1 -1 0 2 3 3 3 2 1 0 -0 -1 -1 -0 1 2 3 3 4 3 3 3 4
4 5 6 7 9 12 14 13 12 11 10 11 12 15 17 19 20 20 20 18 15 11 8 7 6 6 7 6 6 6 7 9 11 13 15 17 18 18 18 17 17 16 16 16 16 16 16 16 16 16 16 15 14 13 11 11 9 8 6 5 3 2 2 2 2 1 -0 -1 -2 -3 -4 -4 -4 -3 -3 -2 -1 -0 2 2 3 4 4 4 4 4
6 6 7 7 9 11 13 13 13 12 11 10 10 11 13 16 18 20 21 21 19 15 11 7 5 5 6 7 9 10 11 11 11 12 12 13 14 15 15 16 16 17 17 17 17 18 18 18 17 16 16 17 18 18 19 19 18 15 14 11 9 8 8 7 8 9 8 7 5 3 2 0 -0 0 1 2 2 3 5 7 8 9 10 9 8 7
8 7 7 7 8 9 9 10 11 12 12 11 10 10 11 13 16 18 21 22 21 20 16 10 6 5 6 6 8 10 12 12 12 11 11 11 11 11 10 10 10 11 13 14 14 14 14 13 12 12 14 14 15 16 18 17 15 13 10 8 8 8 9 9 10 11 12 13 13 12 10 9 8 7 6 6 6 7 8 9 10 11 13 12 12 11
10 8 7 7 6 6 6 7 9 11 12 12 11 10 10 11 13 16 19 22 23 23 21 17 13 10 8 5 4 6 7 8 9 10 11 10 10 9 8 6 4 4 6 8 9 9 8 7 7 7 8 9 9 10 10 10 10 8 6 4 3 4 5 6 8 10 12 13 13 13 12 12 11 11 9 9 10 10 10 11 12 12 12 12 13 13
13 11 9 8 7 6 6 6 7 8 9 10 11 10 10 9 10 12 16 20 22 24 25 26 25 21 15 7 3 1 1 2 4 6 7 8 8 7 5 3 2 2 3 4 5 5 3 1 0 1 1 2 1 1 -0 1 1 1 1 -1 -1 0 2 4 7 10 12 12 12 12 11 12 12 12 12 12 13 13 12 12 12 12 12 12 12 13
17 15 13 11 10 8 7 7 6 6 7 8 9 9 9 9 9 10 11 15 18 21 23 27 30 29 25 16 10 5 3 3 2 2 3 3 3 3 3 3 3 3 4 5 4 4 3 1 -2 -3 -3 -3 -4 -5 -5 -6 -6 -5 -4 -3 -1 1 4 7 11 13 14 14 14 13 12 12 12 12 12 13 13 13 13 12 12 11 11 11 11 12
18 17 16 14 13 11 10 9 7 6 6 6 7 8 8 8 8 8 9 10 12 14 17 20 24 27 29 25 20 15 11 11 10 8 6 3 1 -1 -1 0 1 2 4 5 5 5 4 2 1 -1 -2 -1 -1 -2 -2 -3 -4 -3 -2 1 3 6 9 13 15 16 16 15 14 13 12 12 11 10 10 10 10 11 11 11 10 9 9 8 9 9
18 18 17 17 15 14 13 12 10 9 7 7 6 6 7 7 7 7 7 8 9 10 12 14 16 19 22 24 24 22 19 17 15 14 12 8 5 2 0 -1 -1 -0 2 3 5 6 6 6 5 5 4 2 2 3 6 5 5 5 5 7 10 12 13 15 16 16 14 13 12 10 9 9 9 8 8 8 8 7 7 7 7 6 5 5 5 5
19 18 18 18 17 16 16 15 14 12 11 9 8 7 6 7 7 7 7 7 7 8 10 11 12 14 15 17 18 18 18 15 14 12 11 9 8 8 7 5 3 3 4 6 7 8 9 10 11 13 14 11 8 7 10 13 14 14 13 14 15 15 14 14 14 13 11 9 7 6 5 5 4 4 5 5 5 5 4 4 4 3 3 2 2 2
Height
2967 2969 2971 2973 2974 2976 2978 2978 2978 2977 2979 2981 2984 2986 2988 2990 2992 2994 2995 2997 3000 3002 3004 3007 3010 3012 3015 3016 3018 3020 3022 3024 3025 3027 3028 3030 3032 3034 3036 3038 3040 3043 3045 3047 3049 3051 3054 3056 3058 3060 3060 3062 3063 3063 3064 3065 3067 3069 3071 3073 3075 3078 3080 3081 3083 3084 3085 3086 3087 3088 3090 3091 3093 3095 3096 3098 3099 3101 3102 3104 3105 3107 3108 3109 3109 3110
2963 2966 2969 2970 2972 2973 2975 2976 2977 2976 2976 2979 2982 2984 2985 2987 2989 2991 2993 2995 2997 2999 3001 3004 3006 3009 3011 3013 3015 3017 3018 3020 3022 3024 3025 3027 3029 3031 3033 3035 3038 3040 3042 3045 3047 3049 3051 3054 3055 3056 3057 3059 3060 3061 3061 3062 3064 3066 3068 3071 3073 3075 3076 3078 3080 3081 3083 3084 3085 3085 3087 3089 3090 3092 3093 3095 3096 3098 3100 3102 3104 3105 3106 3107 3107 3108
2960 2963 2965 2967 2969 2970 2972 2974 2975 2975 2975 2977 2980 2982 2984 2985 2987 2988 2990 2992 2994 2996 2998 3000 3003 3006 3008 3010 3011 3013 3015 3017 3019 3020 3022 3024 3026 3028 3030 3032 3035 3038 3040 3042 3044 3046 3049 3051 3052 3053 3054 3055 3057 3058 3059 3060 3061 3063 3065 3067 3070 3072 3074 3075 3077 3078 3080 3081 3082 3084 3085 3086 3088 3090 3091 3092 3094 3096 3098 3100 3101 3103 3104 3105 3105 3106
2957 2960 2962 2964 2966 2968 2969 2971 2973 2975 2974 2975 2978 2981 2982 2983 2985 2986 2988 2990 2991 2993 2995 2997 3000 3002 3004 3006 3008 3009 3011 3013 3015 3017 3019 3021 3023 3025 3027 3030 3032 3035 3037 3040 3042 3044 3046 3048 3049 3050 3051 3052 3054 3055 3056 3057 3059 3060 3062 3064 3067 3069 3071 3072 3074 3075 3076 3078 3080 3082 3083 3085 3086 3087 3089 3090 3092 3094 3095 3097 3099 3100 3101 3102 3103 3104
2954 2956 2958 2961 2963 2965 2967 2969 2971 2973 2974 2975 2976 2978 2980 2981 2983 2984 2986 2987 2989 2991 2993 2995 2997 2999 3000 3002 3005 3007 3008 3010 3012 3015 3016 3018 3019 3021 3024 3026 3029 3032 3034 3036 3039 3041 3043 3045 3046 3047 3048 3049 3051 3053 3054 3055 3056 3058 3060 3062 3065 3066 3068 3070 3071 3073 3075 3076 3079 3080 3082 3083 3084 3085 3087 3089 3090 3092 3093 3095 3096 3097 3099 3100 3101 3102
2950 2953 2955 2958 2960 2962 2965 2967 2968 2970 2973 2974 2975 2976 2978 2980 2981 2983 2984 2985 2987 2989 2991 2992 2993 2995 2997 2999 3001 3003 3005 3007 3009 3011 3013 3015 3016 3018 3020 3023 3026 3029 3031 3034 3036 3038 3040 3041 3043 3044 3045 3046 3048 3050 3052 3053 3055 3056 3058 3060 3062 3064 3066 3068 3069 3071 3073 3075 3077 3079 3080 3081 3082 3084 3085 3087 3088 3090 3091 3092 3094 3095 3096 3097 3098 3099
2947 2950 2952 2955 2957 2960 2962 2964 2966 2968 2971 2973 2973 2974 2976 2978 2980 2982 2983 2985 2986 2987 2989 2990 2990 2991 2994 2996 2998 3000 3001 3004 3006 3008 3010 3012 3014 3016 3018 3020 3023 3025 3028 3030 3033 3035 3036 3038 3040 3041 3042 3044 3045 3047 3049 3050 3052 3054 3056 3058 3060 3062 3064 3065 3067 3069 3071 3073 3075 3076 3078 3079 3080 3082 3083 3085 3086 3087 3089 3090 3091 3092 3093 3095 3095 3097
2944 2946 2949 2952 2954 2957 2960 2962 2964 2966 2969 2971 2971 2972 2974 2975 2978 2980 2982 2984 2985 2985 2986 2987 2988 2989 2991 2993 2995 2997 2999 3000 3003 3005 3007 3010 3012 3014 3016 3018 3020 3022 3025 3027 3029 3031 3033 3035 3037 3039 3040 3041 3042 3044 3045 3047 3049 3051 3054 3056 3058 3060 3062 3063 3065 3067 3069 3070 3072 3074 3075 3076 3078 3079 3081 3082 3084 3085 3086 3087 3089 3090 3091 3092 3093 3095
2941 2944 2946 2949 2951 2954 2957 2959 2961 2963 2966 2969 2970 2970 2971 2973 2975 2978 2980 2982 2983 2983 2984 2984 2985 2987 2990 2991 2993 2994 2996 2998 3001 3003 3005 3007 3010 3012 3014 3015 3018 3020 3023 3025 3027 3029 3030 3032 3034 3036 3037 3038 3039 3040 3042 3045 3047 3049 3051 3054 3055 3057 3059 3060 3063 3065 3066 3068 3069 3071 3072 3074 3075 3077 3078 3080 3081 3083 3084 3085 3086 3087 3089 3090 3091 3092
2939 2941 2943 2946 2949 2951 2954 2956 2958 2960 2963 2965 2967 2968 2969 2971 2973 2975 2978 2979 2980 2981 2982 2983 2984 2985 2988 2990 2991 2993 2995 2997 2999 3001 3002 3005 3008 3010 3011 3013 3016 3019 3021 3023 3025 3027 3028 3029 3030 3032 3033 3035 3036 3038 3040 3043 3045 3047 3049 3051 3053 3055 3056 3058 3060 3062 3064 3065 3066 3068 3070 3071 3073 3074 3076 3077 3079 3080 3082 3083 3084 3085 3086 3088 3089 3090
2936 2939 2941 2943 2946 2949 2951 2954 2956 2958 2961 2963 2964 2966 2968 2969 2970 2973 2975 2976 2977 2979 2980 2981 2982 2984 2986 2988 2990 2992 2994 2996 2998 2999 3000 3002 3005 3007 3010 3012 3015 3017 3019 3021 3023 3025 3026 3027 3028 3029 3031 3032 3034 3036 3038 3040 3042 3044 3046 3048 3050 3052 3053 3055 3057 3059 3060 3062 3064 3065 3066 3068 3070 3071 3073 3075 3076 3078 3079 3080 3082 3083 3084 3086 3087 3088
2935 2936 2939 2941 2943 2946 2949 2951 2954 2956 2958 2960 2962 2964 2967 2968 2968 2970 2971 2973 2974 2975 2977 2978 2980 2982 2984 2987 2989 2990 2993 2995 2996 2997 2999 3000 3003 3005 3008 3010 3013 3015 3016 3019 3021 3023 3024 3025 3027 3029 3030 3032 3033 3035 3037 3039 3040 3042 3044 3046 3048 3049 3050 3052 3054 3056 3057 3059 3060 3062 3064 3065 3067 3069 3070 3072 3074 3075 3077 3078 3080 3081 3082 3084 3085 3086
2933 2935 2936 2939 2941 2943 2945 2948 2951 2953 2955 2957 2959 2961 2964 2965 2966 2968 2969 2970 2972 2973 2974 2975 2978 2980 2982 2984 2986 2988 2990 2992 2994 2996 2997 2999 3001 3003 3005 3008 3010 3012 3014 3017 3019 3020 3022 3023 3025 3026 3029 3030 3032 3034 3035 3038 3039 3041 3042 3044 3045 3046 3047 3049 3051 3052 3054 3055 3057 3059 3060 3062 3064 3066 3068 3070 3071 3073 3074 3076 3077 3079 3080 3082 3083 3084
2930 2933 2935 2936 2938 2940 2942 2945 2948 2950 2952 2954 2956 2959 2961 2963 2965 2966 2968 2969 2969 2970 2971 2973 2975 2977 2979 2982 2984 2985 2987 2989 2991 2993 2995 2998 3000 3001 3004 3006 3008 3010 3012 3015 3017 3019 3020 3021 3023 3024 3026 3027 3029 3031 3033 3035 3037 3039 3040 3042 3043 3044 3045 3046 3047 3049 3050 3052 3054 3055 3057 3060 3061 3063 3065 3067 3069 3070 3072 3074 3075 3077 3078 3080 3081 3082
2928 2930 2932 2934 2935 2937 2940 2943 2945 2948 2950 2952 2955 2957 2960 2962 2963 2964 2965 2966 2966 2967 2968 2970 2972 2975 2977 2979 2980 2983 2985 2987 2989 2990 2992 2995 2997 3000 3001 3004 3006 3007 3009 3012 3014 3016 3018 3020 3021 3022 3024 3025 3027 3029 3031 3033 3035 3037 3039 3040 3041 3042 3043 3044 3044 3045 3047 3049 3051 3053 3055 3057 3059 3061 3063 3065 3066 3068 3070 3071 3073 3075 3076 3077 3079 3080
2926 2928 2930 2931 2933 2935 2937 2940 2943 2946 2949 2951 2954 2955 2957 2960 2961 2962 2963 2963 2964 2964 2965 2967 2970 2973 2975 2976 2978 2980 2983 2985 2986 2988 2990 2992 2994 2996 2999 3001 3003 3005 3007 3010 3012 3014 3015 3018 3019 3021 3022 3024 3026 3028 3030 3031 3033 3035 3037 3038 3040 3041 3042 3044 3045 3045 3046 3048 3049 3051 3053 3055 3056 3059 3060 3062 3064 3066 3068 3069 3071 3072 3074 3075 3076 3077
2923 2925 2927 2929 2931 2933 2936 2939 2941 2944 2946 2949 2951 2953 2955 2957 2959 2960 2960 2961 2961 2962 2963 2964 2966 2969 2972 2974 2976 2978 2981 2983 2984 2986 2988 2990 2992 2993 2995 2998 3000 3002 3004 3006 3009 3011 3014 3016 3017 3019 3021 3023 3024 3026 3028 3030 3031 3033 3035 3037 3038 3040 3041 3043 3044 3045 3046 3047 3048 3050 3051 3053 3055 3056 3058 3060 3061 3063 3065 3067 3068 3070 3071 3073 3074 3075
2921 2923 2924 2926 2928 2930 2933 2935 2938 2940 2942 2946 2948 2950 2953 2955 2957 2958 2959 2958 2958 2959 2960 2962 2964 2966 2968 2971 2973 2975 2978 2980 2982 2984 2986 2989 2990 2992 2994 2995 2997 2999 3001 3004 3006 3008 3011 3013 3015 3017 3019 3021 3022 3024 3026 3027 3029 3031 3033 3035 3036 3038 3040 3041 3042 3043 3045 3045 3047 3048 3049 3050 3052 3054 3055 3057 3059 3060 3062 3064 3066 3067 3069 3070 3071 3072
2920 2922 2923 2923 2925 2926 2929 2931 2933 2935 2939 2942 2945 2948 2951 2953 2955 2956 2956 2956 2956 2956 2957 2960 2962 2964 2966 2969 2971 2973 2976 2978 2980 2982 2985 2986 2988 2990 2992 2995 2996 2998 3000 3001 3003 3006 3009 3011 3013 3015 3017 3019 3020 3022 3023 3025 3027 3029 3031 3033 3034 3036 3037 3038 3040 3041 3042 3044 3045 3046 3047 3048 3050 3051 3053 3055 3056 3058 3060 3061 3063 3065 3067 3068 3070 3070
2919 2920 2921 2922 2923 2925 2927 2929 2930 2933 2936 2938 2941 2945 2948 2950 2952 2954 2955 2955 2955 2954 2955 2957 2960 2962 2965 2967 2970 2972 2975 2977 2978 2980 2982 2984 2986 2988 2990 2992 2994 2995 2997 2999 3000 3003 3005 3008 3010 3013 3015 3017 3018 3020 3021 3023 3025 3026 3028 3030 3032 3033 3035 3036 3037 3039 3040 3041 3043 3044 3045 3047 3048 3050 3051 3053 3055 3056 3058 3060 3061 3063 3065 3066 3067 3069
2917 2919 2920 2920 2922 2923 2925 2926 2928 2931 2934 2937 2940 2943 2945 2948 2950 2952 2953 2953 2952 2952 2953 2956 2958 2960 2962 2965 2968 2970 2973 2975 2976 2978 2980 2982 2984 2986 2988 2990 2991 2992 2994 2996 2998 3000 3003 3006 3009 3011 3013 3015 3016 3018 3020 3021 3023 3025 3026 3028 3030 3031 3033 3034 3035 3037 3039 3040 3041 3043 3044 3046 3047 3049 3050 3052 3054 3055 3056 3058 3060 3061 3062 3064 3065 3067
2915 2916 2917 2919 2920 2921 2922 2924 2926 2930 2933 2935 2938 2940 2943 2946 2948 2950 2950 2950 2949 2950 2951 2953 2955 2957 2960 2963 2966 2968 2970 2973 2974 2975 2977 2980 2982 2984 2985 2986 2988 2990 2992 2994 2997 2999 3002 3005 3007 3009 3011 3013 3015 3017 3019 3020 3022 3024 3025 3027 3028 3030 3031 3033 3034 3036 3037 3039 3040 3042 3043 3045 3046 3048 3049 3051 3052 3054 3055 3056 3058 3059 3060 3062 3063 3065
2913 2915 2915 2917 2918 2919 2920 2922 2925 2928 2930 2932 2935 2937 2939 2942 2945 2946 2947 2946 2945 2945 2947 2950 2952 2955 2959 2962 2965 2966 2968 2970 2972 2974 2976 2979 2980 2981 2982 2985 2986 2988 2990 2993 2996 2998 3001 3003 3005 3007 3009 3011 3013 3015 3017 3019 3020 3022 3024 3026 3027 3029 3030 3032 3033 3035 3036 3038 3039 3041 3042 3044 3045 3047 3048 3050 3051 3052 3054 3055 3056 3057 3059 3060 3061 3063
2911 2913 2914 2915 2916 2917 2919 2921 2923 2925 2927 2930 2933 2936 2938 2940 2941 2943 2944 2942 2942 2944 2945 2948 2951 2955 2958 2960 2961 2963 2966 2968 2970 2972 2975 2977 2978 2980 2981 2984 2986 2987 2990 2992 2995 2998 3000 3002 3003 3005 3008 3010 3011 3013 3015 3017 3019 3021 3023 3025 3026 3028 3029 3030 3032 3033 3035 3036 3038 3040 3041 3043 3044 3046 3047 3048 3050 3051 3052 3054 3055 3056 3057 3059 3060 3061
2910 2912 2913 2914 2915 2916 2918 2919 2920 2922 2925 2928 2932 2935 2937 2940 2941 2942 2941 2942 2943 2945 2946 2948 2950 2953 2954 2955 2957 2960 2963 2965 2967 2970 2972 2975 2977 2979 2981 2983 2984 2986 2988 2991 2995 2997 2999 3000 3002 3004 3006 3008 3010 3011 3013 3015 3017 3019 3021 3023 3025 3026 3028 3029 3031 3032 3034 3035 3037 3039 3040 3042 3043 3045 3046 3047 3048 3050 3051 3052 3053 3055 3056 3057 3058 3059
2908 2910 2912 2913 2914 2916 2918 2918 2919 2921 2925 2928 2930 2933 2935 2937 2939 2941 2942 2943 2943 2944 2945 2946 2947 2948 2950 2952 2955 2959 2961 2964 2966 2968 2970 2973 2975 2978 2980 2981 2982 2984 2987 2990 2994 2996 2998 2999 3000 3002 3005 3006 3008 3010 3012 3014 3015 3017 3019 3021 3023 3025 3026 3028 3030 3031 3033 3034 3036 3038 3039 3041 3042 3043 3045 3045 3047 3048 3049 3050 3051 3053 3054 3055 3056 3057
2907 2909 2910 2912 2913 2915 2917 2918 2920 2922 2924 2927 2929 2930 2932 2934 2936 2938 2940 2941 2941 2941 2941 2943 2944 2945 2947 2950 2954 2957 2959 2961 2964 2967 2969 2971 2974 2976 2978 2979 2981 2983 2986 2989 2992 2994 2995 2996 2998 3000 3003 3004 3006 3008 3010 3012 3014 3016 3018 3020 3021 3023 3025 3026 3028 3030 3031 3033 3035 3036 3038 3039 3040 3042 3043 3044 3045 3046 3047 3048 3050 3051 3052 3053 3054 3055
2905 2907 2909 2910 2912 2914 2916 2918 2919 2921 2924 2925 2927 2929 2930 2932 2934 2935 2936 2937 2938 2939 2939 2940 2941 2943 2945 2949 2951 2954 2956 2960 2962 2964 2966 2970 2973 2975 2976 2978 2980 2983 2985 2988 2990 2992 2994 2995 2997 2999 3001 3002 3004 3006 3008 3010 3012 3014 3016 3018 3020 3021 3023 3025 3027 3028 3030 3032 3034 3035 3036 3038 3039 3040 3041 3042 3043 3044 3045 3046 3048 3049 3050 3051 3052 3053
2904 2905 2907 2908 2910 2913 2915 2917 2919 2920 2923 2925 2926 2928 2929 2931 2933 2934 2934 2934 2935 2936 2937 2938 2939 2941 2943 2946 2949 2952 2955 2958 2960 2962 2965 2968 2971 2973 2975 2977 2980 2981 2983 2986 2989 2991 2993 2994 2996 2998 2999 3001 3002 3004 3006 3008 3010 3012 3014 3016 3018 3020 3022 3024 3025 3027 3029 3030 3032 3034 3035 3036 3037 3038 3040 3040 3041 3043 3044 3045 3046 3047 3048 3050 3050 3051
2902 2903 2905 2906 2908 2910 2913 2915 2917 2919 2921 2923 2925 2926 2928 2930 2931 2932 2933 2934 2935 2935 2936 2936 2937 2939 2941 2944 2947 2950 2953 2955 2957 2960 2963 2966 2969 2971 2973 2976 2978 2980 2981 2984 2987 2989 2991 2993 2995 2996 2998 3000 3001 3003 3005 3007 3009 3011 3013 3015 3017 3019 3020 3022 3024 3026 3028 3029 3031 3032 3034 3035 3036 3037 3038 3039 3040 3041 3042 3044 3045 3046 3047 3048 3049 3050
2900 2901 2903 2904 2906 2908 2910 2913 2915 2917 2919 2920 2922 2924 2926 2928 2929 2930 2932 2933 2934 2935 2936 2935 2936 2938 2940 2942 2944 2946 2949 2951 2955 2958 2962 2965 2967 2969 2972 2975 2977 2978 2980 2983 2985 2986 2988 2990 2993 2995 2997 2999 3001 3002 3004 3006 3008 3010 3012 3014 3016 3018 3020 3021 3023 3025 3026 3028 3029 3031 3032 3033 3034 3035 3036 3037 3039 3040 3041 3042 3043 3044 3045 3046 3047 3048
2900 2900 2901 2903 2904 2906 2909 2911 2913 2915 2917 2918 2920 2922 2924 2925 2927 2929 2930 2932 2932 2933 2934 2935 2936 2938 2940 2941 2942 2944 2947 2950 2954 2958 2961 2963 2965 2968 2971 2973 2975 2977 2980 2982 2984 2984 2985 2987 2990 2993 2996 2998 3000 3002 3004 3006 3008 3010 3011 3013 3015 3017 3019 3020 3022 3024 3025 3026 3028 3029 3030 3032 3033 3034 3035 3036 3037 3038 3039 3040 3041 3042 3043 3044 3045 3046
2899 2900 2900 2901 2903 2905 2907 2909 2911 2913 2915 2917 2918 2920 2921 2923 2925 2927 2928 2930 2931 2932 2933 2935 2936 2938 2938 2940 2942 2945 2948 2951 2954 2957 2959 2961 2964 2966 2969 2971 2973 2975 2978 2980 2983 2984 2985 2987 2990 2992 2994 2996 2998 3000 3003 3005 3007 3009 3010 3012 3014 3016 3018 3019 3021 3022 3024 3025 3026 3028 3029 3030 3031 3032 3034 3035 3036 3037 3038 3039 3040 3040 3041 3042 3043 3044
2898 2899 2900 2900 2902 2904 2906 2908 2910 2911 2914 2915 2917 2919 2920 2922 2923 2925 2926 2928 2930 2931 2933 2935 2936 2937 2938 2940 2942 2945 2947 2950 2953 2955 2957 2960 2962 2965 2967 2970 2971 2974 2976 2978 2980 2983 2985 2988 2990 2991 2993 2995 2997 2999 3001 3003 3005 3007 3009 3011 3013 3015 3016 3018 3020 3021 3022 3024 3025 3026 3027 3029 3030 3031 3032 3033 3034 3035 3036 3037 3038 3038 3039 3040 3041 3042
2897 2898 2899 2900 2901 2903 2905 2906 2908 2910 2912 2914 2915 2917 2919 2920 2922 2923 2925 2926 2928 2930 2932 2934 2936 2938 2940 2941 2942 2944 2946 2948 2951 2954 2956 2958 2961 2963 2966 2968 2970 2972 2975 2977 2979 2981 2984 2986 2988 2990 2992 2994 2996 2998 3000 3002 3004 3006 3008 3010 3011 3013 3015 3017 3018 3019 3020 3022 3023 3025 3026 3027 3028 3029 3030 3031 3032 3033 3034 3035 3035 3036 3037 3038 3039 3040
2897 2897 2898 2899 2900 2902 2904 2905 2907 2908 2910 2912 2914 2916 2917 2919 2920 2922 2923 2925 2926 2929 2930 2933 2935 2938 2940 2942 2944 2945 2946 2948 2950 2952 2955 2957 2960 2962 2964 2966 2968 2970 2973 2975 2977 2979 2982 2984 2986 2989 2990 2993 2994 2996 2998 3000 3002 3004 3006 3008 3010 3011 3013 3014 3016 3017 3018 3020 3021 3022 3024 3025 3026 3027 3028 3029 3030 3031 3032 3033 3033 3034 3035 3036 3037 3038
2896 2897 2898 2899 2900 2901 2903 2904 2906 2907 2909 2910 2912 2914 2916 2917 2919 2920 2922 2923 2925 2927 2929 2931 2934 2936 2938 2941 2943 2945 2947 2950 2951 2952 2954 2956 2959 2961 2963 2965 2967 2970 2972 2974 2976 2978 2980 2983 2985 2987 2989 2991 2993 2995 2996 2999 3001 3003 3004 3005 3007 3009 3010 3012 3013 3015 3016 3017 3019 3020 3022 3023 3024 3025 3026 3027 3028 3029 3030 3030 3031 3032 3033 3034 3035 3035
2895 2896 2897 2898 2899 2900 2902 2903 2905 2906 2907 2909 2910 2912 2914 2916 2918 2919 2920 2922 2924 2925 2927 2929 2931 2934 2936 2939 2941 2944 2947 2949 2952 2954 2955 2957 2960 2962 2963 2965 2967 2970 2971 2973 2975 2977 2980 2981 2983 2985 2987 2989 2991 2993 2995 2997 2999 3000 3002 3003 3005 3007 3008 3010 3011 3012 3014 3015 3017 3018 3020 3021 3022 3023 3024 3025 3026 3027 3028 3028 3029 3030 3031 3032 3032 3033
2895 2896 2897 2898 2899 2900 2901 2902 2904 2905 2906 2908 2909 2911 2912 2914 2916 2918 2920 2921 2923 2924 2926 2928 2930 2932 2934 2937 2940 2942 2945 2947 2950 2952 2955 2957 2960 2961 2963 2965 2966 2968 2970 2972 2974 2976 2978 2980 2982 2983 2985 2987 2989 2991 2993 2995 2996 2998 3000 3002 3004 3005 3006 3007 3009 3010 3012 3013 3015 3016 3017 3019 3020 3021 3022 3023 3024 3025 3026 3027 3027 3028 3029 3030 3030 3031
2894 2895 2896 2897 2898 2899 2900 2901 2903 2904 2905 2907 2908 2910 2911 2913 2915 2917 2919 2920 2922 2924 2925 2927 2929 2931 2933 2935 2938 2940 2943 2945 2948 2950 2953 2955 2957 2959 2961 2962 2964 2966 2968 2970 2972 2974 2975 2977 2979 2981 2983 2985 2988 2990 2991 2993 2995 2996 2998 3000 3001 3003 3004 3005 3007 3009 3010 3011 3012 3014 3015 3016 3017 3018 3019 3020 3022 3023 3024 3025 3025 3026 3027 3028 3028 3029
2894 2895 2895 2896 2897 2899 2900 2900 2902 2903 2904 2906 2907 2909 2910 2912 2914 2916 2918 2920 2921 2923 2925 2926 2928 2930 2932 2934 2936 2938 2940 2943 2945 2948 2950 2952 2955 2956 2958 2960 2961 2963 2965 2967 2969 2971 2973 2975 2977 2979 2981 2983 2985 2987 2989 2991 2993 2995 2997 2998 2999 3000 3002 3003 3005 3006 3007 3009 3010 3011 3013 3014 3015 3016 3017 3018 3020 3020 3022 3023 3024 3025 3025 3026 3026 3027
2894 2894 2895 2896 2897 2898 2899 2900 2901 2902 2903 2905 2906 2908 2909 2911 2913 2914 2916 2918 2920 2922 2924 2925 2928 2930 2931 2934 2935 2937 2939 2941 2943 2945 2947 2950 2952 2954 2956 2958 2960 2962 2964 2965 2967 2969 2971 2973 2975 2977 2979 2981 2983 2985 2987 2989 2990 2992 2994 2995 2996 2998 3000 3001 3003 3004 3005 3006 3008 3009 3010 3011 3013 3014 3015 3016 3017 3018 3019 3020 3021 3022 3023 3024 3024 3025
2893 2894 2895 2896 2897 2898 2899 2900 2901 2902 2903 2904 2905 2907 2908 2910 2911 2913 2915 2916 2918 2920 2922 2924 2926 2928 2930 2932 2934 2936 2938 2940 2941 2943 2945 2948 2950 2952 2954 2956 2958 2960 2962 2964 2966 2967 2969 2971 2973 2975 2977 2979 2981 2983 2985 2986 2988 2990 2991 2993 2994 2996 2997 2999 3000 3001 3003 3004 3005 3007 3008 3009 3010 3011 3012 3013 3015 3015 3017 3018 3019 3020 3020 3021 3022 3022
2892 2894 2895 2896 2897 2898 2899 2900 2900 2902 2903 2904 2905 2906 2908 2909 2911 2912 2914 2915 2917 2919 2920 2922 2925 2926 2929 2931 2933 2935 2936 2938 2940 2942 2944 2946 2949 2951 2953 2955 2956 2959 2960 2963 2964 2966 2968 2970 2972 2974 2975 2978 2980 2981 2983 2985 2986 2988 2989 2990 2992 2993 2994 2995 2997 2999 3001 3002 3003 3005 3006 3007 3008 3009 3010 3011 3012 3013 3014 3015 3016 3017 3017 3018 3019 3020
2892 2893 2894 2895 2896 2897 2898 2899 2900 2901 2903 2904 2905 2906 2908 2909 2910 2912 2913 2915 2916 2918 2919 2921 2923 2925 2927 2930 2931 2933 2935 2937 2940 2941 2944 2946 2948 2950 2952 2954 2955 2957 2959 2961 2963 2965 2967 2969 2970 2972 2974 2976 2978 2980 2981 2983 2984 2985 2986 2988 2989 2990 2992 2993 2995 2997 2998 2999 3000 3002 3003 3004 3005 3006 3007 3008 3009 3010 3011 3012 3013 3014 3015 3015 3016 3017
2890 2892 2893 2894 2895 2896 2897 2899 2900 2901 2902 2904 2905 2906 2907 2909 2910 2911 2913 2914 2915 2917 2918 2920 2922 2924 2926 2928 2930 2933 2935 2937 2939 2941 2943 2945 2947 2949 2951 2953 2955 2956 2958 2960 2962 2964 2965 2967 2969 2971 2973 2975 2976 2978 2979 2980 2982 2983 2984 2985 2987 2988 2990 2991 2993 2994 2995 2997 2998 2999 3000 3001 3002 3004 3004 3005 3006 3008 3009 3010 3010 3011 3011 3012 3013 3014
2890 2891 2892 2893 2894 2895 2896 2898 2899 2900 2902 2903 2905 2906 2907 2909 2910 2911 2912 2914 2915 2917 2918 2920 2921 2923 2925 2928 2930 2932 2934 2936 2938 2940 2942 2944 2946 2948 2950 2951 2953 2955 2957 2958 2960 2962 2964 2965 2967 2969 2971 2972 2974 2975 2976 2978 2980 2981 2982 2983 2985 2986 2987 2989 2990 2991 2993 2994 2995 2996 2997 2999 3000 3000 3001 3002 3004 3005 3006 3006 3007 3008 3009 3009 3010 3011
2889 2890 2891 2892 2893 2894 2895 2897 2898 2899 2901 2902 2904 2905 2907 2908 2910 2911 2912 2914 2915 2917 2918 2920 2921 2922 2924 2926 2929 2931 2933 2935 2937 2939 2941 2943 2945 2947 2949 2950 2952 2954 2955 2957 2959 2960 2962 2964 2965 2967 2969 2970 2971 2973 2974 2976 2977 2979 2980 2981 2983 2984 2985 2986 2988 2989 2990 2992 2993 2994 2995 2996 2997 2997 2998 2999 3000 3001 3002 3003 3004 3005 3006 3007 3007 3008
2888 2889 2890 2891 2892 2893 2895 2896 2897 2898 2900 2901 2903 2904 2906 2907 2909 2910 2912 2913 2915 2916 2918 2919 2920 2922 2923 2925 2927 2929 2931 2934 2935 2937 2939 2941 2943 2945 2947 2949 2950 2952 2954 2955 2957 2959 2960 2962 2963 2965 2966 2968 2969 2970 2972 2974 2975 2976 2977 2979 2980 2982 2983 2984 2985 2987 2988 2989 2990 2991 2992 2993 2994 2995 2996 2997 2998 2998 2999 3000 3001 3002 3003 3004 3005 3005
2887 2888 2889 2890 2891 2892 2893 2895 2896 2897 2899 2900 2902 2903 2905 2906 2908 2910 2911 2912 2914 2915 2917 2918 2920 2921 2923 2924 2926 2928 2930 2931 2933 2935 2937 2939 2941 2943 2945 2946 2948 2950 2952 2954 2955 2957 2959 2960 2962 2963 2965 2966 2967 2969 2970 2971 2973 2974 2975 2977 2978 2980 2981 2982 2983 2985 2986 2987 2988 2989 2990 2991 2992 2993 2994 2994 2995 2996 2997 2998 2999 3000 3000 3001 3002 3003
2887 2888 2889 2890 2890 2891 2893 2894 2895 2896 2898 2899 2900 2902 2904 2905 2907 2908 2910 2912 2913 2915 2916 2917 2919 2920 2922 2923 2925 2926 2928 2930 2932 2933 2935 2937 2939 2940 2942 2944 2946 2948 2950 2951 2953 2955 2956 2958 2960 2961 2963 2964 2965 2967 2968 2970 2971 2972 2974 2975 2976 2978 2979 2980 2981 2983 2984 2985 2986 2987 2988 2989 2990 2990 2991 2992 2993 2994 2995 2995 2996 2997 2998 2999 3000 3000